Wind_Speed
12 9 8 9 8 9 8 9 7 7 8 8 9 9 11 11 11 11 11 12 13 15 18 19 18 14 15 12 13 12 13 16 11 11 19 16 13 11 10 10 11 11 12
14 8 6 13 15 11 11 8 7 8 7 9 10 11 10 11 14 14 13 11 12 13 15 17 18 19 18 16 16 16 13 10 23 18 16 11 13 10 10 11 11 11 11
13 15 17 15 11 10 11 10 8 8 8 9 9 11 12 9 13 14 14 17 17 17 14 16 16 17 17 15 15 16 15 18 21 21 13 14 13 11 11 11 10 11 12
17 17 12 10 13 10 9 9 9 9 9 9 10 10 9 10 12 13 12 15 19 22 20 19 18 17 15 16 16 16 17 20 22 22 18 15 12 10 8 9 7 7 8
19 15 12 13 13 12 11 10 9 8 8 7 6 11 7 6 10 12 13 11 13 16 20 22 21 19 14 13 14 15 17 21 20 19 14 13 11 11 8 9 8 8 6
16 16 15 14 18 14 12 11 10 8 7 5 8 7 3 9 10 10 10 11 11 7 13 16 18 19 19 16 13 15 11 16 19 15 11 13 12 9 10 10 9 8 3
17 16 15 19 17 14 12 12 8 6 6 5 9 5 5 9 9 9 9 8 8 10 15 10 12 12 11 14 17 14 12 9 9 12 14 12 12 10 10 8 7 8 6
19 19 17 17 16 14 12 12 10 10 6 5 8 6 5 9 10 10 9 9 8 8 9 9 10 10 10 9 14 16 14 13 12 11 11 10 9 8 5 4 4 3 3
21 21 22 20 19 17 15 13 14 14 12 12 12 9 5 8 11 9 9 10 7 5 7 7 7 10 10 11 13 16 16 16 13 12 10 9 8 6 4 3 0 4 6
22 23 23 21 20 21 18 16 16 14 14 13 11 10 8 8 12 9 5 9 8 7 6 4 7 10 10 8 9 11 11 10 12 13 13 14 13 9 5 3 7 9 7
14 21 20 21 17 17 17 18 17 15 14 13 12 12 11 9 11 10 5 4 12 10 7 6 7 8 7 6 9 8 6 5 4 4 5 8 9 6 8 7 5 7 9
14 17 20 20 18 15 17 18 20 17 14 15 15 16 14 12 11 13 8 7 14 12 10 7 8 8 7 6 7 9 6 7 6 8 12 8 13 9 3 5 5 5 5
11 12 13 13 15 15 16 17 17 19 19 18 19 20 18 16 14 15 13 11 12 11 11 9 9 8 7 6 7 7 2 3 3 14 16 12 5 4 4 2 4 6 4
4 4 7 9 11 11 12 14 17 21 21 21 22 24 23 20 18 18 17 15 14 13 12 11 12 11 6 10 8 5 3 6 10 11 9 6 5 4 6 3 2 2 8
3 4 4 4 5 7 8 9 13 13 18 20 25 28 27 26 25 19 19 19 17 16 15 16 15 11 12 13 11 8 7 8 6 5 4 2 5 7 5 3 2 4 4
2 3 4 5 8 7 6 9 11 13 15 18 20 23 28 31 19 18 17 17 17 17 19 21 18 16 17 16 15 12 13 9 8 5 6 3 3 3 1 3 5 4 4
1 3 4 5 9 8 7 9 10 11 13 14 15 16 18 26 19 20 19 20 19 18 23 21 20 20 20 20 21 21 18 17 12 9 6 6 4 3 4 6 6 9 6
0 5 7 10 10 10 8 9 10 11 11 9 11 13 16 18 20 19 20 24 23 22 25 25 22 18 19 20 24 27 20 18 14 11 10 8 9 6 7 8 7 9 12
0 4 7 9 11 14 10 9 10 11 13 13 11 13 15 16 16 17 19 25 26 25 26 27 26 23 17 21 17 19 25 21 19 16 14 13 13 12 11 9 10 9 10
2 5 7 10 8 13 12 12 13 12 13 14 17 18 18 17 18 21 24 25 23 23 24 26 28 26 20 22 19 20 21 17 16 20 17 14 15 14 12 10 7 7 9
6 6 8 9 11 15 15 16 16 18 15 18 22 23 24 25 24 25 26 26 28 27 25 22 25 24 22 23 22 22 20 16 15 19 20 20 19 17 15 11 9 10 5
6 9 10 13 17 16 19 20 19 21 22 24 23 22 23 25 24 24 24 26 28 30 29 26 24 27 31 27 25 24 21 17 21 23 28 28 25 13 7 5 5 7 9
9 12 14 14 18 20 20 22 23 23 24 25 23 25 28 29 28 26 25 24 25 23 23 24 25 25 29 27 26 25 25 24 20 17 16 13 12 9 8 9 10 12 13
12 13 15 17 14 16 23 25 27 30 25 24 21 30 32 36 29 28 28 22 30 29 18 18 18 15 14 13 25 28 25 18 15 14 12 12 11 10 10 12 14 15 17
16 12 13 13 7 5 13 12 8 6 5 2 25 29 34 27 22 14 12 4 20 35 30 27 24 22 20 17 21 20 20 20 18 16 16 14 12 11 13 16 19 21 22
15 12 13 9 2 5 8 8 4 3 7 12 13 12 10 12 10 7 3 5 8 12 10 6 1 10 11 11 12 15 19 19 16 12 10 8 9 13 16 17 17 18 13
Wind_Direction
146 146 135 88 74 131 138 145 103 105 99 88 81 76 73 73 67 63 56 51 53 56 55 60 66 82 91 100 129 148 137 145 120 115 129 130 122 118 112 107 108 109 105
138 136 132 136 119 120 125 112 121 111 96 97 94 87 82 76 76 79 74 62 61 68 63 67 74 84 93 103 108 116 129 148 139 130 133 126 124 130 122 119 116 111 107
132 126 124 129 128 130 123 108 111 107 101 99 96 93 85 89 82 80 79 67 65 70 75 71 78 87 91 100 106 111 114 134 142 142 134 143 136 142 133 125 122 114 104
140 143 145 144 150 145 138 133 123 119 107 106 105 102 101 92 93 91 97 77 73 71 72 73 77 84 89 89 106 117 122 132 143 146 141 146 146 150 142 137 127 132 127
149 158 161 159 158 143 144 132 123 134 117 112 109 115 107 107 87 104 99 92 78 80 76 69 69 75 89 92 99 120 126 132 139 135 136 149 153 159 166 152 146 142 141
159 165 162 168 165 156 152 152 151 142 134 140 149 144 90 116 99 104 101 90 85 99 92 76 77 77 78 90 94 87 97 132 141 140 150 154 164 161 159 166 169 165 189
168 170 169 170 164 158 157 152 144 153 155 162 168 170 130 139 115 115 107 101 95 94 85 104 95 92 79 90 96 99 98 103 109 132 148 157 160 158 161 177 185 206 225
179 181 182 179 172 173 179 179 177 173 194 163 185 172 129 155 145 127 122 119 113 94 92 95 100 99 79 105 115 107 99 95 111 125 135 142 144 153 173 166 181 198 191
188 192 191 190 189 189 197 200 193 199 203 197 187 170 164 170 171 155 143 148 139 108 116 110 119 119 103 106 113 108 101 97 101 104 108 123 125 121 119 158 170 272 253
193 192 194 198 204 200 207 211 202 201 204 201 178 193 190 185 186 187 168 171 163 135 149 141 148 131 144 138 120 118 118 109 113 120 114 109 111 104 80 88 76 74 106
189 193 196 201 208 209 214 213 207 200 200 198 188 193 198 195 199 208 201 208 185 164 150 146 159 165 158 134 184 158 147 162 186 184 162 145 130 94 59 74 63 85 101
209 199 200 202 211 214 215 217 213 207 202 194 190 185 201 210 212 209 214 164 177 171 182 171 163 167 176 180 170 179 192 204 242 256 247 258 205 187 127 90 64 83 79
144 160 184 202 217 222 220 216 217 210 207 203 204 196 202 212 215 213 209 197 189 181 188 187 169 155 148 157 162 157 145 26 130 131 138 135 106 101 118 118 354 264 260
105 134 175 184 207 216 219 225 222 214 213 214 209 213 214 214 222 211 208 204 199 187 188 185 171 160 158 157 159 140 126 105 106 111 118 120 160 202 170 110 357 339 260
158 173 147 185 202 210 210 218 221 219 219 216 223 220 212 211 221 219 212 203 204 201 195 185 185 194 187 184 193 188 158 150 126 119 129 120 159 129 152 163 306 336 359
125 235 241 231 214 237 256 271 269 265 248 240 237 237 230 229 220 216 216 212 208 200 192 194 205 205 207 213 221 222 188 170 160 156 151 141 131 173 1 205 246 265 298
222 283 267 240 206 233 263 279 268 264 259 254 249 253 244 222 207 202 199 204 207 202 201 205 217 221 226 230 232 217 189 183 184 170 176 178 204 207 257 286 253 241 204
233 281 273 267 240 224 258 258 246 248 248 239 224 217 215 209 203 207 205 201 198 207 210 214 225 239 251 246 206 205 193 183 190 185 200 207 207 210 251 268 257 284 210
128 283 272 283 258 229 242 240 242 243 242 235 217 204 196 196 197 195 203 206 209 216 217 223 231 238 265 199 186 184 186 189 186 192 210 216 227 220 238 256 267 281 264
262 278 282 277 233 217 222 238 231 232 226 231 222 211 202 202 202 205 209 213 218 221 226 232 234 237 254 195 189 172 173 176 187 198 223 231 230 220 241 253 261 292 302
259 265 277 273 262 236 231 236 238 226 218 220 231 223 216 213 212 213 215 218 220 222 226 236 244 240 227 195 197 197 205 218 224 224 231 232 227 240 239 233 262 272 283
247 260 264 266 261 257 251 247 233 234 228 226 232 228 229 223 220 221 225 229 229 228 232 238 242 259 208 198 205 204 209 224 232 242 247 251 252 235 207 241 253 271 282
237 261 264 262 264 260 259 256 248 239 226 225 220 211 211 216 217 216 226 234 235 230 226 232 256 211 203 212 213 215 217 227 237 192 182 182 200 226 250 268 280 284 285
239 259 269 274 269 270 276 262 259 251 254 251 234 215 213 212 214 216 219 233 239 231 220 231 213 211 199 209 221 226 221 197 193 213 226 240 233 236 249 266 276 280 280
233 248 263 277 278 320 328 348 198 147 39 51 191 200 198 211 223 223 236 37 228 225 216 219 224 217 218 186 186 196 213 225 232 248 242 228 239 251 267 275 278 278 279
246 257 264 266 261 9 13 17 2 59 109 96 115 144 140 137 131 118 108 117 120 111 108 72 343 202 196 208 221 222 212 209 210 204 209 235 261 279 284 282 285 276 267
Height
797 800 802 803 806 809 811 816 817 818 817 816 815 815 816 815 814 814 814 813 812 810 808 806 803 802 803 804 803 805 807 810 818 828 830 833 833 834 836 836 837 838 839
799 801 801 804 807 811 814 816 818 818 818 817 817 817 818 818 816 816 817 815 813 810 810 809 808 806 806 806 806 806 808 810 814 824 831 833 835 836 837 838 840 841 841
799 803 804 805 809 812 814 816 817 819 819 818 819 819 820 820 819 819 819 818 816 813 813 812 811 811 809 808 808 809 810 813 817 822 829 833 835 838 839 840 841 842 844
798 803 805 806 809 812 814 816 817 819 820 820 820 820 821 822 821 822 822 821 820 819 817 816 814 814 813 812 812 813 814 815 818 823 828 832 835 838 840 841 843 844 845
799 802 805 808 810 812 814 815 816 820 820 820 821 821 822 823 823 824 824 824 823 823 822 820 819 816 816 817 817 816 816 818 822 825 829 833 835 838 840 841 843 845 846
799 803 803 805 807 809 811 814 817 819 819 820 820 821 823 823 824 825 826 826 825 826 825 825 823 822 821 820 820 820 820 820 823 827 830 833 836 837 839 841 843 844 846
797 801 802 804 807 811 814 813 816 817 817 819 819 821 822 823 825 826 826 827 828 827 827 828 826 826 826 825 824 824 825 826 828 829 831 834 836 837 839 841 843 843 844
796 799 801 804 806 809 810 811 812 813 817 819 820 820 822 824 825 826 827 828 828 828 828 828 828 828 828 828 827 828 829 830 831 832 834 836 837 838 840 840 842 843 843
793 797 800 802 805 807 808 809 811 813 815 816 817 819 821 824 825 826 827 828 828 829 829 830 830 830 831 831 830 831 832 833 834 835 836 838 839 840 840 841 841 843 842
791 794 798 801 803 804 805 808 810 811 813 815 817 818 821 822 824 825 826 827 827 828 830 830 831 832 832 833 833 834 834 835 836 837 838 839 840 841 842 842 841 841 841
789 791 795 798 799 802 804 806 808 809 811 813 815 816 818 820 821 823 824 824 825 826 828 829 830 831 832 833 834 835 835 836 837 838 840 841 843 843 843 841 841 842 842
787 789 791 794 797 799 801 803 805 807 809 810 812 814 815 816 818 819 822 823 825 824 827 829 829 830 831 832 834 834 835 836 837 838 839 840 841 842 842 842 842 843 843
783 787 790 793 794 797 799 800 802 803 806 808 809 811 811 813 814 816 819 821 822 824 825 827 829 829 830 831 832 834 835 835 833 834 837 839 840 841 842 842 842 843 843
786 787 789 790 793 793 796 797 798 799 801 804 805 806 807 809 810 811 815 818 820 822 824 826 827 829 829 830 832 833 835 835 835 836 836 838 839 840 841 842 842 842 842
785 787 790 790 792 793 794 794 795 796 795 797 798 799 801 803 803 809 812 815 818 819 822 824 826 827 828 829 831 832 833 834 835 835 836 838 838 839 841 841 841 841 840
785 787 789 791 791 792 792 792 793 793 793 793 794 795 796 797 801 806 810 812 815 817 819 821 823 823 825 827 828 830 831 832 833 835 835 837 838 838 839 839 840 840 839
785 786 788 789 789 790 789 789 789 790 789 789 789 790 791 793 796 801 805 809 812 814 815 817 818 820 821 823 825 827 827 829 831 832 834 835 836 837 837 837 838 838 838
785 785 787 788 787 787 787 787 787 787 787 786 786 787 789 791 794 798 801 805 808 809 811 812 814 815 816 817 817 821 824 825 827 829 831 832 833 835 835 835 835 834 834
783 784 785 785 785 784 785 785 784 784 785 785 786 787 788 791 793 796 799 800 802 804 806 808 809 811 811 812 814 816 818 821 823 825 827 828 830 831 831 831 831 831 831
780 781 782 782 782 782 782 782 782 782 782 783 784 785 787 789 790 791 793 796 798 800 801 802 803 805 806 808 810 812 815 817 819 821 823 824 826 827 827 827 827 827 827
777 777 778 778 779 779 778 778 778 779 779 779 780 782 783 784 786 787 789 791 793 794 795 797 798 800 801 803 805 807 809 812 813 815 817 819 821 822 822 823 823 823 823
774 775 774 773 773 774 773 774 774 774 774 775 776 778 779 782 783 784 785 786 787 789 790 791 792 793 795 796 799 801 804 806 808 810 812 814 816 818 818 819 818 819 819
771 770 768 768 767 768 769 768 768 768 768 769 771 773 774 775 777 779 781 782 783 783 785 787 786 785 788 791 793 796 798 801 804 806 807 808 810 812 813 814 814 814 813
765 765 763 763 763 764 763 761 759 759 759 758 760 762 764 767 769 771 774 776 777 777 778 781 782 782 784 785 789 791 793 797 798 801 802 803 805 806 808 809 809 809 808
760 759 758 758 759 759 757 755 755 755 754 754 756 756 759 763 767 770 772 771 768 771 771 773 776 778 778 780 782 786 789 791 794 798 800 800 801 801 803 804 804 804 803
754 754 754 756 756 757 757 756 755 755 754 754 756 762 763 764 766 767 770 770 764 765 768 771 774 775 776 778 780 783 783 785 789 792 793 795 797 798 799 799 798 798 797